This demonstration page uses our WeatherBlox Daily Observations layout. Learn more.

Left ArrowRight Arrow

39.51506, -84.39828

Hourly Observations for June 4, 2017

Temp ( °F °C ) Dew Point ( °F °C ) Humidity (%) Winds ( mph kmh ) Pressure ( in mb ) Visibility ( mi km ) Precip ( " mm )
12:15 am 00:15 Clear 63 17.3 55 12.6 74 74 N N/A 30.00 1016 10 16 N/A
12:35 am 00:35 Clear 62 16.7 54 12.1 74 74 N N/A 30.00 1016 10 16 N/A
12:55 am 00:55 Clear 62 16.7 54 12.3 75 75 N N/A 30.00 1016 10 16 N/A
1:15 am 01:15 Clear 62 16.6 54 12 74 74 N N/A 30.00 1016 10 16 N/A
1:35 am 01:35 Clear 61 16 53 11.7 76 76 N N/A 30.00 1016 10 16 N/A
1:55 am 01:55 Clear 61 15.9 53 11.8 77 77 N N/A 30.00 1016 10 16 N/A
2:15 am 02:15 Clear 61 16 53 11.8 76 76 N N/A 30.00 1016 10 16 N/A
2:35 am 02:35 Clear 60 15.3 53 11.5 78 78 N N/A 30.03 1017 10 16 N/A
2:55 am 02:55 Clear 60 15.3 53 11.6 79 79 N N/A 30.03 1017 10 16 N/A
3:15 am 03:15 Clear 60 15.3 53 11.8 80 80 N N/A 29.97 1015 10 16 N/A
3:35 am 03:35 Clear 60 15.3 53 11.8 80 80 W 3 6 29.97 1015 10 16 N/A
3:55 am 03:55 Clear 60 15.7 53 11.9 78 78 N N/A 29.97 1015 10 16 N/A
4:15 am 04:15 Clear 60 15.6 54 12 79 79 N N/A 29.97 1015 10 16 N/A
4:35 am 04:35 Clear 60 15.3 53 11.7 79 79 N N/A 29.97 1015 10 16 N/A
4:55 am 04:55 Clear 60 15.3 54 12.2 82 82 N N/A 29.97 1015 10 16 N/A
5:15 am 05:15 Clear 57 13.8 51 10.6 81 81 N N/A 29.97 1015 10 16 N/A
5:35 am 05:35 Clear 58 14.3 52 11.2 82 82 N N/A 29.97 1015 10 16 N/A
5:55 am 05:55 Clear 57 13.8 51 10.6 81 81 N N/A 29.97 1015 10 16 N/A
6:15 am 06:15 Sunny 57 13.8 51 10.7 82 82 N N/A 30.00 1016 10 16 N/A
6:35 am 06:35 Sunny 58 14.4 53 11.5 83 83 N N/A 30.00 1016 10 16 N/A
6:55 am 06:55 Sunny 57 14 52 10.9 82 82 N N/A 30.00 1016 10 16 N/A
7:15 am 07:15 Sunny 60 15.3 54 12.1 81 81 N N/A 29.97 1015 10 16 N/A
7:35 am 07:35 Sunny 62 16.6 56 13.3 81 81 N N/A 29.97 1015 10 16 N/A
7:55 am 07:55 Sunny 67 19.3 58 14.6 74 74 N N/A 29.97 1015 10 16 N/A
8:15 am 08:15 Partly Cloudy 69 20.8 58 14.3 66 66 N N/A 29.97 1015 10 16 N/A
8:35 am 08:35 Partly Cloudy 69 20.8 56 13.2 62 62 S 3 6 29.97 1015 10 16 N/A
8:55 am 08:55 Sunny 72 22.3 55 12.6 54 54 SSW 3 6 29.97 1015 10 16 N/A
9:15 am 09:15 Sunny 74 23.6 56 13.3 53 53 SSW 5 7 29.97 1015 10 16 N/A
9:35 am 09:35 Sunny 74 23.6 55 12.6 50 50 S 5 7 29.94 1014 10 16 N/A
9:55 am 09:55 Sunny 77 25 56 13.6 49 49 SSW 6 9 29.94 1014 10 16 N/A
10:15 am 10:15 Sunny 77 25.1 54 12.3 45 45 SSW 6 9 29.94 1014 10 16 N/A
10:35 am 10:35 Sunny 78 25.3 54 12.3 44 44 SSW 6 9 29.94 1014 10 16 N/A
10:55 am 10:55 Sunny 80 26.5 54 12 41 41 SSW 7 11 29.94 1014 10 16 N/A
11:15 am 11:15 Sunny 81 27.2 51 10.7 36 36 SW 10 17 29.94 1014 10 16 N/A
11:35 am 11:35 Partly Cloudy 81 27.2 51 10.4 35 35 SSW 12 19 29.91 1013 10 16 N/A
11:55 am 11:55 Partly Cloudy 82 28 51 10.4 33 33 SW 10 17 29.88 1012 10 16 N/A
12:15 pm 12:15 Mostly Cloudy 82 27.5 51 10.8 35 35 SSW 5 7 29.88 1012 10 16 N/A
12:35 pm 12:35 Partly Cloudy 83 28.2 51 10.7 34 34 SW 7 11 29.88 1012 10 16 N/A
12:55 pm 12:55 Sunny 84 28.7 52 10.9 33 33 WSW 8 13 29.88 1012 10 16 N/A
1:15 pm 13:15 Sunny 85 29.3 52 11.3 33 33 SSW 9 15 29.85 1011 10 16 N/A
1:35 pm 13:35 Sunny 87 30.5 57 13.9 36 36 WSW 9 15 29.85 1011 10 16 N/A
1:55 pm 13:55 Sunny 89 31.7 56 13.5 33 33 WSW 12 19 29.85 1011 10 16 N/A
2:15 pm 14:15 Partly Cloudy 90 32 56 13.1 32 32 SW 9 15 29.85 1011 10 16 N/A
2:35 pm 14:35 Mostly Cloudy 87 30.7 55 12.9 34 34 SW 6 9 29.85 1011 10 16 N/A
2:55 pm 14:55 Mostly Cloudy 87 30.8 55 12.9 33 33 W 8 13 29.83 1010 10 16 N/A
3:15 pm 15:15 Partly Cloudy 90 32.1 55 12.5 30 30 W 10 17 29.83 1010 10 16 N/A
3:35 pm 15:35 Partly Cloudy 90 32.1 56 13.4 32 32 W 7 11 29.83 1010 10 16 N/A
3:55 pm 15:55 Partly Cloudy 90 32.1 56 13.2 32 32 WNW 8 13 29.80 1009 10 16 N/A
4:15 pm 16:15 Sunny 89 31.6 55 12.9 32 32 SW 10 17 29.80 1009 10 16 N/A
4:35 pm 16:35 Sunny 90 32.1 55 12.8 31 31 SSW 13 20 29.80 1009 10 16 N/A
4:55 pm 16:55 Sunny 90 32.1 56 13.1 31 31 SSW 12 19 29.80 1009 10 16 N/A
5:15 pm 17:15 Partly Cloudy 90 32.1 55 13 31 31 SW 12 19 29.80 1009 10 16 N/A
5:35 pm 17:35 Partly Cloudy 85 29.3 52 11.3 33 33 SSW 12 19 29.80 1009 10 16 N/A
5:55 pm 17:55 Sunny 87 30.7 54 12.1 32 32 SSW 12 19 29.80 1009 10 16 N/A
6:10 pm 18:10 Sunny 87 30.7 55 12.8 33 33 SSW 9 15 29.80 1009 10 16 N/A
6:35 pm 18:35 Sunny 83 28.6 51 10.7 33 33 SW 8 13 29.80 1009 10 16 N/A
6:55 pm 18:55 Sunny 83 28.6 52 11.3 34 34 SSW 7 11 29.80 1009 10 16 N/A
7:15 pm 19:15 Sunny 82 28 53 11.9 37 37 SSW 8 13 29.80 1009 10 16 N/A
7:35 pm 19:35 Sunny 81 27.3 56 13.4 42 42 SW 7 11 29.80 1009 10 16 N/A
7:55 pm 19:55 Sunny 80 26.7 58 14.3 47 47 SSW 7 11 29.80 1009 10 16 N/A
8:15 pm 20:15 Sunny 80 26.5 57 14.1 46 46 SSW 6 9 29.80 1009 10 16 N/A
8:35 pm 20:35 Sunny 80 26.5 58 14.2 47 47 SSW 6 9 29.80 1009 10 16 N/A
8:55 pm 20:55 Sunny 78 25.3 60 15.3 54 54 SW 5 7 29.83 1010 10 16 N/A
9:15 pm 21:15 Clear 78 25.5 57 13.9 49 49 SSW 7 11 29.83 1010 10 16 N/A
9:35 pm 21:35 Clear 77 25.1 58 14.7 53 53 SSW 7 11 29.83 1010 10 16 N/A
9:55 pm 21:55 Clear 74 23.6 57 14.1 55 55 SSW 6 9 29.83 1010 10 16 N/A
10:15 pm 22:15 Clear 74 23.6 58 14.6 57 57 SW 6 9 29.83 1010 10 16 N/A
10:35 pm 22:35 Clear 74 23.6 59 14.8 58 58 SSW 5 7 29.83 1010 10 16 N/A
10:55 pm 22:55 Clear 74 23.6 58 14.2 56 56 SW 5 7 29.83 1010 10 16 N/A
11:15 pm 23:15 Clear 74 23.6 57 14.1 55 55 SSW 5 7 29.83 1010 10 16 N/A
11:35 pm 23:35 Clear 73 22.8 61 16.1 66 66 SW 3 6 29.83 1010 10 16 N/A
11:55 pm 23:55 Clear 71 21.9 62 16.4 71 71 N N/A 29.83 1010 10 16 N/A

Powered by AerisWeather